Terminal Aerodrome Forecast
Issued by NWS

Home | Current Version | Previous Version | Text Only | Print | Product List | Glossary On
Versions: 1 2 3 4 5 6 7 8 9 10 11 12 13 14 15 16
674
FTUS43 KLSX 202000 AAA
TAFUIN
TAF AMD
KUIN 202020Z 2020/2118 05012KT P6SM BKN015 OVC040
     FM210200 02004KT P6SM BKN007 OVC015
     FM211400 32007KT P6SM BKN025=

USA.gov is the U.S. government's official web portal to all federal, state and local government web resources and services.